ECHOSTAR 21

Last updated on Thu Oct 30 2025 00:02:50 GMT+0000 (Coordinated Universal Time)

1 42749U 17032A 25302.33041697 .00000074 00000+0 00000+0 0 9993 2 42749 1.8700 340.9152 0002403 229.5747 316.6502 1.00272318 30788
UTC large
Height (km)
Speed (km/s)
/
Latitude / Longitude
Inclination (degrees)
Orbital Period (minutes)
Azimuth
Elevation
Range (km)
Doppler Factor

Next 0 passes for location: London (51.5072 / 0.1276)

Sorry there are no passes over London.